Location: Peebles
(55.6412°N, 3.1714°W)
Time: 22:17:16
(UTC+01:00)

NOAA 16 DEB - Pass Details

Date: 07 July 2022
Orbit: 836 x 880 km, 98.8° (Epoch: 14 August)

Event Time Altitude Azimuth Distance (km) Brightness Sun altitude
Rises 23:52:06 0° 223° (SW) 3,454 ? -9.8°
Reaches altitude 10° 23:55:49 10° 248° (WSW) 2,530 ? -9.9°
Maximum altitude 23:58:37 14° 278° (W) 2,272 ? -10.1°
Drops below altitude 10° 00:01:26 10° 309° (NW) 2,546 ? -10.2°
Sets 00:05:13 0° 334° (NNW) 3,494 ? -10.3°
